Regional Weather Roundup
Issued by NWS Albany, NY

Home | Current Version | Previous Version | Text Only | Print | Product List | Glossary On
Versions: 1 2 3 4 5 6 7 8 9 10 11 12 13 14 15 16 17 18 19 20 21 22 23 24 25 26 27 28 29 30 31 32 33 34 35 36 37 38 39 40 41 42 43 44 45 46 47 48 49 50
000
ASUS41 KALY 021110
RWRALY

NEW YORK STATE HOURLY WEATHER ROUNDUP
NATIONAL WEATHER SERVICE ALBANY NY
700 AM EDT TUE JUN 02 2015

NOTE: "FAIR" INDICATES FEW OR NO CLOUDS BELOW 12,000 FEET WITH NO
SIGNIFICANT WEATHER AND/OR NO OBSTRUCTIONS TO VISIBILITY.

NYZ032-033-038>043-046>054-057>066-NYZ062>081-021200-
EAST


CITY           SKY/WX    TMP DP  RH WIND       PRES   REMARKS
ALBANY         CLOUDY    50  47  89 CALM      30.16F
GLENS FALLS    CLOUDY    50  46  86 NW5       30.17S
POUGHKEEPSIE   CLOUDY    49  46  90 N7        30.14S
NEWBURGH       LGT RAIN  48  48 100 NE9       30.14S FOG
MONTGOMERY     RAIN      49  48  97 NE8       30.13S FOG
WHITE PLAINS   CLOUDY    48  46  93 N7        30.10S FOG
ISLIP          LGT RAIN  50  47  89 NE14G23   30.07F
NEW YORK CITY  LGT RAIN  50  47  89 NE13G18   30.11R FOG
CENTRAL PARK   CLOUDY    51  48  89 NE8       30.14R FOG
$$

NYZ005>009-017-018-044>046-055-056-021200-
CENTRAL


CITY           SKY/WX    TMP DP  RH WIND       PRES   REMARKS
FULTON         CLOUDY    53  49  86 N6        30.15S
SYRACUSE       DRIZZLE   52  51  97 N6        30.14R FOG
ROME           CLOUDY    49  48  97 E5        30.16R FOG
ELMIRA         CLOUDY    52  51  97 N3        30.12R FOG
BINGHAMTON     CLOUDY    50  50 100 N10       30.11R FOG
MONTICELLO     CLOUDY    46  45  93 E5        30.13S
$$

NYZ026>034-041>043-021200-
NORTH


CITY           SKY/WX    TMP DP  RH WIND       PRES   REMARKS
WATERTOWN      CLOUDY    52  51  97 N6        30.16S
FORT DRUM      NOT AVBL
MASSENA        CLOUDY    50  48  93 NE6       30.19R FOG
SARANAC LAKE   CLOUDY    46  45  96 NE3       30.14R FOG
PLATTSBURGH    CLOUDY    50  47  89 CALM      30.19R
$$

NYZ001>004-010>016-019>021-021200-
WEST


CITY           SKY/WX    TMP DP  RH WIND       PRES   REMARKS
NIAGARA FALLS  PTSUNNY   50  46  86 NE5       30.18R
BUFFALO        CLOUDY    51  47  86 N5        30.18R
DUNKIRK        CLOUDY    52  48  86 NE6       30.18R
JAMESTOWN      CLOUDY    46  45  93 NE7       30.15S
WELLSVILLE     FOG       47  46  97 N5        30.14R VSB 1/4
ROCHESTER      DRIZZLE   51  50  96 N6        30.18R FOG
PENN YAN       CLOUDY    51  48  89 N7        30.15S
$$

             KEY
       WCI = WIND CHILL INDEX
       VSB = VISIBILITY
       HX  = HEAT INDEX
$$


USA.gov is the U.S. government's official web portal to all federal, state and local government web resources and services.